Regional Weather Roundup
Issued by NWS

Home | Current Version | Previous Version | Graphics & Text | Print | Product List | Glossary On
Versions: 1 2 3 4 5 6 7 8 9 10 11 12 13 14 15 16 17 18 19 20 21 22 23 24 25 26 27 28 29 30 31 32 33 34 35 36 37 38 39 40 41 42 43 44 45 46 47 48 49 50
000
ASUS43 KIND 311259
RWRIN

WEATHER ROUNDUP FOR INDIANA
NATIONAL WEATHER SERVICE INDIANAPOLIS IN
900 AM EDT FRI JUL 31 2015

NOTE: "FAIR" INDICATES FEW OR NO CLOUDS BELOW 12,000 FEET WITH NO
SIGNIFICANT WEATHER AND/OR OBSTRUCTIONS TO VISIBILITY.

* - STATION DOES NOT REPORT WEATHER SUCH AS PRECIPITATION OR FOG.

+ - STATION NOT QUALITY CONTROLLED BY THE NATIONAL WEATHER SERVICE.
    USE DATA WITH CAUTION...ESPECIALLY DEWPOINT AND RELATIVE
    HUMIDITY OBSERVATIONS.

INZ001>003-010>013-019-020-311400-
NORTHWEST INDIANA

CITY           SKY/WX    TMP DP  RH WIND       PRES   REMARKS
GARY /AIRPORT/ MOSUNNY   73  63  68 W8        30.03S
KNOX *+        SUNNY     70  61  73 W7        30.03S
MONTICELLO +   SUNNY     69  66  88 W6        30.05S
RENSSELAER +   SUNNY     70  68  94 SW3       30.06S

$$

LMZ046-743>745-311400-
SOUTHERN LAKE MICHIGAN

STATION/POSITION TIME  TEMP    WIND        PRES    WAVE
                       AIR SEA DIR/SP/G            HT
                 (UTC) (F)     (DEG/KT/KT) (MB)    (FT)
BURNS HARBOR     1200   71     230/  8/ 10 1017.3R
MICHIGAN CITY    1200   71     190/  8/  9   N/A
5NW MICH CITY    1200   74 73  250/  8/ 12   N/A     2

$$

INZ004-005-014>016-021>024-311400-
NORTH CENTRAL INDIANA

CITY           SKY/WX    TMP DP  RH WIND       PRES   REMARKS
ELKHART        SUNNY     73  64  73 W8        30.02
GOSHEN         SUNNY     72  64  76 W6        30.02S
SOUTH BEND     SUNNY     73  63  70 SW6       30.02F
WARSAW +       SUNNY     72  63  73 W6        30.04S

$$

INZ006>009-017-018-025>027-311400-
NORTHEAST INDIANA

CITY           SKY/WX    TMP DP  RH WIND       PRES   REMARKS
ANGOLA *+      SUNNY     73  66  78 NW7       30.02S
FORT WAYNE     SUNNY     72  62  71 W8        30.04R

$$

INZ028-029-035-036-043>045-051>053-311400-
WEST CENTRAL INDIANA

CITY           SKY/WX    TMP DP  RH WIND       PRES   REMARKS
CRAWFORDSVL +  SUNNY     69  64  84 CALM        N/A
GREENCASTLE +  SUNNY     72  61  68 NW3       30.10R
LAFAYETTE      SUNNY     69  66  90 W3        30.07S
TERRE HAUTE    SUNNY     74  67  78 NW5       30.09R

$$

INZ030>032-037>040-046>048-054>057-064-065-311400-
CENTRAL INDIANA

CITY           SKY/WX    TMP DP  RH WIND       PRES   REMARKS
FRANKFORT +    SUNNY     71  71 100 CALM      30.09S
GREENWOOD *+   SUNNY     72  63  73 CALM      30.08S
INDIANAPOLIS   MOSUNNY   74  63  68 NW8       30.07R
-EAGLE CREEK   SUNNY     74  64  71 NW7       30.08R
KOKOMO *+      SUNNY     72  63  73 W9        30.07S
MT COMFORT *+  SUNNY     73  66  78 NW7       30.08R
SHELBYVILLE    SUNNY     73  66  78 W5        30.07R

$$

INZ033-034-041-042-049-050-058-059-311400-
EAST CENTRAL INDIANA

CITY           SKY/WX    TMP DP  RH WIND       PRES   REMARKS
MUNCIE         SUNNY     70  62  76 NW10      30.06R

$$

INZ060-061-067>069-081>083-085>088-311400-
SOUTHWEST INDIANA

CITY           SKY/WX    TMP DP  RH WIND       PRES   REMARKS
EVANSVILLE     SUNNY     76  65  68 N6        30.10R
HUNTINGBURG *+ SUNNY     73  66  78 NW3       30.10R

$$

INZ062-063-066-070>080-084-089>092-311400-
SOUTH CENTRAL AND SOUTHEAST INDIANA

CITY           SKY/WX    TMP DP  RH WIND       PRES   REMARKS
BLOOMINGTON    SUNNY     73  66  78 CALM      30.09S
MADISON *+     SUNNY     72  64  78 CALM      30.10S
SEYMOUR +      SUNNY     75  66  73 CALM      30.08S

$$



USA.gov is the U.S. government's official web portal to all federal, state and local government web resources and services.